Location: Marse
(42.1502°N, 110.9866°W)
Time: 19:28:29
(UTC+00:00)

ZACube-1 - Pass Details

Date: 07 July 2022
Orbit: 582 x 661 km, 97.6° (Epoch: 07 August)

Event Time Altitude Azimuth Distance (km) Brightness Sun altitude
Rises 10:28:54 0° 24° (NNE) 2,979 ? -13.1°
Reaches altitude 10° 10:31:26 10° 37° (NE) 2,072 ? -12.8°
Maximum altitude 10:35:15 26° 95° (E) 1,287 ? -12.3°
Drops below altitude 10° 10:39:03 10° 152° (SSE) 2,072 ? -11.8°
Sets 10:41:35 0° 165° (SSE) 2,979 ? -11.5°
